Bluffton, MN

4:49 PM CDT on August 30, 2016 (GMT -0500)
Wadena Municipal

Weather History for KADC - June, 2013

Change the Weather History Date:

Monday, June 10, 2013

  Actual Average Record
Temperature  
Mean Temperature 61 °F -  
Max Temperature 69 °F 73 °F 93 °F (1976)
Min Temperature 53 °F 50 °F 37 °F (1972)
Degree Days  
Heating Degree Days 4    
Growing Degree Days 11 (Base 50)    
Moisture  
Dew Point 54 °F    
Average Humidity 84    
Maximum Humidity 100    
Minimum Humidity 60    
Precipitation  
Precipitation 0.00 in - - ()
Sea Level Pressure  
Sea Level Pressure 29.84 in    
Wind  
Wind Speed 1 mph (South)    
Max Wind Speed 8 mph    
Max Gust Speed -    
Visibility 7 miles    
Events      
Averages and records for this station are not official NWS values.
T = Trace of Precipitation, MM = Missing Value Source: NWS Daily Summary

Daily Weather History Graph

Daily Weather History Graph

Search for Another Location

Airport or City:

Trip Planner

Search our weather history database for the weather conditions in past years. The results will help you decide how hot, cold, wet, or windy it might be!

Date:

Astronomy

Jun. 10, 2013 Rise Set
Actual Time 5:28 AM CDT 9:12 PM CDT
Civil Twilight 4:49 AM CDT 9:51 PM CDT
Nautical Twilight 3:57 AM CDT 10:44 PM CDT
Astronomical Twilight 2:43 AM CDT 11:58 PM CDT
Moon 7:22 AM CDT (6/10) 10:33 PM CDT (6/10)
Length of Visible Light 17h 02m
Length of Day
15h 44m
Waxing Crescent, 4% of the Moon is Illuminated
Jun 10
Waxing Crescent
Jun 16
First Quarter
Jun 23
Full
Jun 29
Last Quarter
Jul 8
New

Hourly Weather History & Observations

Time (CDT) Temp. Dew Point Humidity Pressure Visibility Wind Dir Wind Speed Gust Speed Precip Events Conditions
12:15 AM 53.6 °F 51.8 °F 94% 29.85 in 2.0 mi Calm Calm - N/A   Overcast
12:35 AM 53.6 °F 51.8 °F 94% 29.85 in 3.0 mi Calm Calm - N/A   Overcast
12:53 AM 53.6 °F 51.8 °F 94% 29.85 in 3.0 mi Calm Calm - N/A   Overcast
1:15 AM 53.6 °F 51.8 °F 94% 29.84 in 3.0 mi Calm Calm - N/A   Overcast
1:34 AM 53.6 °F 51.8 °F 94% 29.84 in 3.0 mi Calm Calm - N/A   Overcast
1:53 AM 53.6 °F 51.8 °F 94% 29.84 in 3.0 mi Calm Calm - N/A   Overcast
2:15 AM 53.6 °F 51.8 °F 94% 29.83 in 4.0 mi Calm Calm - N/A   Overcast
2:34 AM 53.6 °F 51.8 °F 94% 29.83 in 3.0 mi Calm Calm - N/A   Overcast
2:53 AM 53.6 °F 51.8 °F 94% 29.83 in 2.5 mi Calm Calm - N/A   Overcast
3:15 AM 53.6 °F 51.8 °F 94% 29.83 in 2.5 mi Calm Calm - N/A   Overcast
3:35 AM 53.6 °F 51.8 °F 94% 29.82 in 2.0 mi Calm Calm - N/A   Overcast
3:53 AM 53.6 °F 51.8 °F 94% 29.82 in 2.5 mi Calm Calm - N/A   Overcast
4:15 AM 53.6 °F 51.8 °F 94% 29.83 in 2.5 mi Calm Calm - N/A   Overcast
4:35 AM 53.6 °F 51.8 °F 94% 29.84 in 2.0 mi Calm Calm - N/A   Overcast
4:53 AM 53.6 °F 51.8 °F 94% 29.84 in 1.8 mi Calm Calm - N/A   Overcast
5:14 AM 53.6 °F 51.8 °F 94% 29.83 in 1.0 mi Calm Calm - N/A   Overcast
5:35 AM 53.6 °F 51.8 °F 94% 29.83 in 1.8 mi Calm Calm - N/A   Overcast
5:53 AM 53.6 °F 51.8 °F 94% 29.83 in 1.0 mi Calm Calm - N/A   Overcast
6:14 AM 53.6 °F 51.8 °F 94% 29.83 in 1.2 mi Calm Calm - N/A   Overcast
6:35 AM 53.6 °F 51.8 °F 94% 29.84 in 2.5 mi Calm Calm - N/A   Overcast
6:53 AM 53.6 °F 51.8 °F 94% 29.85 in 2.5 mi Calm Calm - N/A   Overcast
7:14 AM 53.6 °F 53.6 °F 100% 29.86 in 3.0 mi Calm Calm - N/A   Overcast
7:35 AM 53.6 °F 53.6 °F 100% 29.85 in 5.0 mi Calm Calm - N/A   Overcast
7:52 AM 53.6 °F 53.6 °F 100% 29.85 in 5.0 mi Calm Calm - N/A   Overcast
8:15 AM 53.6 °F 53.6 °F 100% 29.86 in 5.0 mi West 4.6 mph - N/A   Overcast
8:35 AM 53.6 °F 53.6 °F 100% 29.86 in 7.0 mi West 4.6 mph - N/A   Overcast
8:53 AM 53.6 °F 53.6 °F 100% 29.86 in 10.0 mi West 5.8 mph - N/A   Overcast
9:14 AM 53.6 °F 51.8 °F 94% 29.87 in 10.0 mi WNW 5.8 mph - N/A   Overcast
9:35 AM 55.4 °F 51.8 °F 88% 29.86 in 10.0 mi Calm Calm - N/A   Overcast
9:53 AM 55.4 °F 51.8 °F 88% 29.86 in 10.0 mi Calm Calm - N/A   Overcast
10:15 AM 57.2 °F 53.6 °F 88% 29.86 in 10.0 mi Calm Calm - N/A   Overcast
10:35 AM 57.2 °F 51.8 °F 82% 29.86 in 10.0 mi West 3.5 mph - N/A   Overcast
10:52 AM 57.2 °F 51.8 °F 82% 29.86 in 10.0 mi WSW 3.5 mph - N/A   Overcast
11:15 AM 57.2 °F 53.6 °F 88% 29.86 in 10.0 mi WSW 4.6 mph - N/A   Overcast
11:35 AM 59.0 °F 51.8 °F 77% 29.86 in 10.0 mi WNW 4.6 mph - N/A   Overcast
11:53 AM 60.8 °F 51.8 °F 72% 29.85 in 10.0 mi Calm Calm - N/A   Overcast
12:15 PM 60.8 °F 53.6 °F 77% 29.85 in 10.0 mi Calm Calm - N/A   Overcast
12:35 PM 60.8 °F 53.6 °F 77% 29.84 in 10.0 mi Calm Calm - N/A   Mostly Cloudy
12:53 PM 62.6 °F 53.6 °F 72% 29.84 in 10.0 mi Calm Calm - N/A   Scattered Clouds
1:15 PM 62.6 °F 55.4 °F 77% 29.84 in 10.0 mi Calm Calm - N/A   Scattered Clouds
1:35 PM 64.4 °F 55.4 °F 73% 29.84 in 10.0 mi SE 3.5 mph - N/A   Clear
1:52 PM 64.4 °F 53.6 °F 68% 29.83 in 10.0 mi South 4.6 mph - N/A   Clear
2:14 PM 64.4 °F 53.6 °F 68% 29.84 in 10.0 mi South 4.6 mph - N/A   Clear
2:35 PM 64.4 °F 55.4 °F 73% 29.84 in 10.0 mi Calm Calm - N/A   Scattered Clouds
2:53 PM 64.4 °F 55.4 °F 73% 29.84 in 10.0 mi South 3.5 mph - N/A   Scattered Clouds
3:15 PM 64.4 °F 55.4 °F 73% 29.84 in 10.0 mi South 5.8 mph - N/A   Light Drizzle
3:34 PM 64.4 °F 55.4 °F 73% 29.84 in 10.0 mi SSE 3.5 mph - N/A   Scattered Clouds
3:53 PM 64.4 °F 55.4 °F 73% 29.85 in 10.0 mi Calm Calm - N/A   Clear
4:15 PM 66.2 °F 55.4 °F 68% 29.85 in 10.0 mi South 3.5 mph - N/A   Scattered Clouds
4:35 PM 66.2 °F 55.4 °F 68% 29.84 in 10.0 mi SSW 3.5 mph - N/A   Scattered Clouds
4:53 PM 66.2 °F 55.4 °F 68% 29.84 in 10.0 mi Calm Calm - N/A   Scattered Clouds
5:15 PM 68.0 °F 55.4 °F 64% 29.84 in 10.0 mi Calm Calm - N/A   Mostly Cloudy
5:35 PM 69.8 °F 55.4 °F 60% 29.83 in 10.0 mi Calm Calm - N/A   Mostly Cloudy
5:52 PM 68.0 °F 55.4 °F 64% 29.83 in 10.0 mi Calm Calm - N/A   Mostly Cloudy
6:14 PM 68.0 °F 55.4 °F 64% 29.83 in 10.0 mi Calm Calm - N/A   Overcast
6:35 PM 68.0 °F 55.4 °F 64% 29.82 in 10.0 mi SSE 5.8 mph - N/A   Overcast
6:53 PM 69.8 °F 55.4 °F 60% 29.82 in 10.0 mi SE 3.5 mph - N/A   Mostly Cloudy
7:15 PM 69.8 °F 57.2 °F 64% 29.82 in 10.0 mi ESE 5.8 mph - N/A   Scattered Clouds
7:34 PM 68.0 °F 57.2 °F 68% 29.81 in 10.0 mi SE 6.9 mph - N/A   Clear
7:53 PM 68.0 °F 55.4 °F 64% 29.81 in 10.0 mi SSE 8.1 mph - N/A   Clear
8:15 PM 66.2 °F 55.4 °F 68% 29.80 in 10.0 mi SSE 4.6 mph - N/A   Clear
8:35 PM 66.2 °F 57.2 °F 73% 29.81 in 10.0 mi Calm Calm - N/A   Clear
8:53 PM 64.4 °F 57.2 °F 77% 29.81 in 10.0 mi Calm Calm - N/A   Clear
9:14 PM 62.6 °F 57.2 °F 82% 29.81 in 10.0 mi Calm Calm - N/A   Clear
9:35 PM 60.8 °F 57.2 °F 88% 29.83 in 10.0 mi Calm Calm - N/A   Clear
9:53 PM 60.8 °F 57.2 °F 88% 29.82 in 10.0 mi Calm Calm - N/A   Clear
10:14 PM 57.2 °F 55.4 °F 94% 29.83 in 10.0 mi Calm Calm - N/A   Clear
10:35 PM 57.2 °F 57.2 °F 100% 29.84 in 10.0 mi Calm Calm - N/A   Clear
10:53 PM 57.2 °F 55.4 °F 94% 29.83 in 10.0 mi SE 3.5 mph - N/A   Clear
11:14 PM 57.2 °F 55.4 °F 94% 29.83 in 10.0 mi ESE 4.6 mph - N/A   Clear
11:35 PM 57.2 °F 55.4 °F 94% 29.83 in 10.0 mi Calm Calm - N/A   Clear
11:53 PM 57.2 °F 55.4 °F 94% 29.82 in 10.0 mi ESE 3.5 mph - N/A   Clear